Flag for Ireland Weather past 2 weeks in Galway, Ireland

Now
61 °F

Partly cloudy.


Feels Like: 61 °F
Forecast: 58 / 65 °F
Wind: 5 mph from Southwest

Location: Shannon Airport

Current Time: Jul 10, 2014 at 11:16:56 PM

Latest Report: Jul 10, 2014 at 11:00 PM


Visibility: N/A

Pressure: 30.18 "Hg

Humidity: 88%

Dew point: 57 °F

Location of GalwayLocation

Historic Weather in Galway — Graph

°F

Galway temperature yesterday

Maximum temperature yesterday: 64 °F (at 2:00 PM)
Minimum temperature yesterday: 48 °F (at 5:00 AM)
Average temperature yesterday: 59 °F

Past Weeks' High & Low Weather Summary

 TemperatureHumidityPressure
High75 °F (Jul 1, 5:00 PM)100% (Jun 27, 1:30 AM)30.33 "Hg (Jun 27, 1:30 AM)
Low46 °F (Jul 1, 4:30 AM)34% (Jul 1, 6:30 PM)29.50 "Hg (Jul 4, 8:00 AM)
Average60 °F76%29.96 "Hg
* Reported Jun 25 10:00 PM — Jul 10 10:00 PM, Galway, Weather by CustomWeather, © 2014

Note: Actual official high and low records may vary slightly from our data, if they occured in-between our weather recording intervals... More about our weather records

Advertising

Galway weather history for previous 24 hours

 ConditionsComfort  
Time TempWeatherWind HumidityBarometerVisibility
10:00 PM
Jul 10
61 °FBroken clouds.3 mph88%30.18 "HgN/A
9:30 PM61 °FBroken clouds.6 mph88%30.18 "HgN/A
9:00 PM61 °FPartly sunny.8 mph88%30.18 "HgN/A
8:30 PM61 °FBroken clouds.9 mph88%30.18 "HgN/A
8:00 PM61 °FBroken clouds.8 mph88%30.18 "HgN/A
7:30 PM63 °FBroken clouds.10 mph83%30.18 "HgN/A
7:00 PM63 °FBroken clouds.8 mph83%30.18 "HgN/A
6:30 PM64 °FBroken clouds.9 mph78%30.18 "HgN/A
6:00 PM64 °FBroken clouds.12 mph78%30.18 "HgN/A
5:30 PM64 °FBroken clouds.10 mph78%30.18 "HgN/A
5:00 PM63 °FBroken clouds.12 mph83%30.18 "HgN/A
4:30 PM63 °FBroken clouds.9 mph83%30.18 "HgN/A
4:00 PM63 °FMostly cloudy.10 mph83%30.18 "HgN/A
3:30 PM63 °FBroken clouds.13 mph83%30.18 "HgN/A
3:00 PM63 °FBroken clouds.9 mph83%30.18 "HgN/A
2:30 PM63 °FPartly sunny.13 mph83%30.21 "HgN/A
2:00 PM63 °FPartly sunny.10 mph77%30.18 "HgN/A
1:30 PM64 °FPartly sunny.10 mph78%30.18 "HgN/A
1:00 PM64 °FBroken clouds.8 mph78%30.18 "HgN/A
12:30 PM64 °FBroken clouds.5 mph83%30.21 "HgN/A
12:00 PM63 °FBroken clouds.6 mph88%30.21 "HgN/A
11:30 AM64 °FDrizzle. Broken clouds.9 mph78%30.21 "HgN/A
11:00 AM64 °FBroken clouds.9 mph78%30.21 "HgN/A
10:30 AM63 °FBroken clouds.8 mph83%30.21 "HgN/A
10:00 AM61 °FDrizzle. Broken clouds.7 mph88%30.21 "HgN/A
9:30 AM61 °FPartly sunny.7 mph88%30.21 "HgN/A
9:00 AM61 °FPartly sunny.6 mph88%30.21 "HgN/A
8:30 AM61 °FBroken clouds.7 mph88%30.21 "HgN/A
8:00 AM61 °FPartly sunny.8 mph88%30.21 "HgN/A
7:30 AM61 °FPartly sunny.7 mph88%30.21 "HgN/A
7:00 AM59 °FPartly sunny.8 mph94%30.21 "HgN/A
6:30 AM59 °FPartly sunny.8 mph88%30.21 "HgN/A
6:00 AM59 °FPassing clouds.8 mph88%30.21 "HgN/A
5:30 AM59 °FPassing clouds.10 mph88%30.21 "HgN/A
5:00 AM59 °FPassing clouds.9 mph94%30.21 "HgN/A
4:30 AM59 °FPassing clouds.10 mph88%30.21 "HgN/A
4:00 AM59 °FPassing clouds.8 mph88%30.24 "HgN/A
3:30 AM59 °FPartly cloudy.8 mph88%30.24 "HgN/A
3:00 AM59 °FPassing clouds.9 mph88%30.24 "HgN/A
2:30 AM59 °FPassing clouds.9 mph88%30.24 "HgN/A
2:00 AM59 °FPartly cloudy.8 mph94%30.24 "HgN/A
1:30 AM59 °FPartly cloudy.7 mph100%30.24 "HgN/A
1:00 AM59 °FPartly cloudy.6 mph100%30.24 "HgN/A
12:30 AM59 °FPartly cloudy.8 mph100%30.27 "Hg2 mi
12:00 AM61 °FPartly cloudy.8 mph94%30.27 "Hg4 mi
11:30 PM
Jul 9
61 °FPartly cloudy.12 mph94%30.27 "HgN/A
11:00 PM61 °FPassing clouds.8 mph94%30.27 "HgN/A
Weather by CustomWeather, © 2014

See weather overviewHow to use our weather pages